| time (UTC) | temp F | wind direction | speed MPH | gust MPH | rain 1hr in | rain 24hr in | rain mn in | humidity % | barometer mb |
| 20260505063058 | 80 | 145 | 2.0 | 6.0 | 0.00 | 0.00 | 0.00 | 100 | 1015.1 |
| 20260505061628 | 80 | 157 | 2.0 | 8.0 | 0.00 | 0.00 | 0.00 | 100 | 1015.2 |
| 20260505060058 | 80 | 96 | 2.0 | 8.0 | 0.00 | 0.00 | 0.00 | 100 | 1015.2 |
| 20260505054609 | 80 | 32 | 1.0 | 8.0 | 0.00 | 0.00 | 0.00 | 100 | 1015.2 |
| 20260505053056 | 80 | 141 | 1.0 | 5.0 | 0.00 | 0.00 | 0.00 | 100 | 1015.3 |
| 20260505051553 | 80 | 279 | 3.0 | 7.0 | 0.00 | 0.00 | 0.00 | 100 | 1015.6 |
| 20260505041554 | 80 | 48 | 2.0 | 6.0 | 0.00 | 0.00 | 0.00 | 100 | 1015.8 |
| 20260505040049 | 80 | 138 | 2.0 | 6.0 | 0.00 | 0.00 | 0.00 | 100 | 1016.0 |
| 20260505034551 | 80 | 133 | 2.0 | 7.0 | 0.00 | 0.00 | 0.00 | 100 | 1016.1 |
| 20260505033054 | 80 | 189 | 2.0 | 7.0 | 0.00 | 0.00 | 0.00 | 100 | 1016.3 |
| 20260505031558 | 80 | 147 | 3.0 | 6.0 | 0.00 | 0.00 | 0.00 | 100 | 1016.2 |
| 20260505030055 | 80 | 178 | 2.0 | 8.0 | 0.00 | 0.00 | 0.00 | 100 | 1016.3 |
| 20260505024608 | 80 | 142 | 2.0 | 6.0 | 0.00 | 0.00 | 0.00 | 100 | 1016.2 |
| 20260505023051 | 80 | 117 | 0.0 | 5.0 | 0.00 | 0.00 | 0.00 | 100 | 1016.2 |
| 20260505021609 | 80 | 90 | 1.0 | 7.0 | 0.00 | 0.00 | 0.00 | 100 | 1016.1 |
| 20260505020049 | 80 | 0 | 2.0 | 5.0 | 0.00 | 0.00 | 0.00 | 100 | 1016.0 |
| 20260505014549 | 80 | 143 | 1.0 | 5.0 | 0.00 | 0.00 | 0.00 | 100 | 1016.0 |
| 20260505013056 | 80 | 144 | 1.0 | 5.0 | 0.00 | 0.00 | 0.00 | 100 | 1015.9 |
| 20260505011557 | 80 | 104 | 1.0 | 6.0 | 0.00 | 0.00 | 0.00 | 100 | 1015.9 |
| 20260505010052 | 80 | 148 | 1.0 | 5.0 | 0.00 | 0.00 | 0.00 | 100 | 1015.8 |
| 20260505004550 | 80 | 91 | 2.0 | 6.0 | 0.00 | 0.00 | 0.00 | 100 | 1015.8 |
| 20260505003047 | 80 | 72 | 1.0 | 5.0 | 0.00 | 0.00 | 0.00 | 100 | 1015.5 |
| 20260505001546 | 80 | 27 | 2.0 | 5.0 | 0.00 | 0.00 | 0.00 | 100 | 1015.3 |
| 20260505000051 | 81 | 108 | 2.0 | 7.0 | 0.00 | 0.00 | 0.00 | 100 | 1015.2 |
| 20260504234551 | 81 | 0 | 2.0 | 9.0 | 0.00 | 0.00 | 0.00 | 100 | 1015.0 |
| 20260504233059 | 81 | 146 | 3.0 | 8.0 | 0.00 | 0.00 | 0.00 | 100 | 1014.8 |
| 20260504231549 | 80 | 20 | 2.0 | 7.0 | 0.00 | 0.00 | 0.00 | 100 | 1014.6 |
| 20260504230050 | 81 | 145 | 1.0 | 5.0 | 0.00 | 0.00 | 0.00 | 100 | 1014.4 |
| 20260504224548 | 81 | 99 | 2.0 | 11.0 | 0.00 | 0.00 | 0.00 | 100 | 1014.4 |
| 20260504223103 | 81 | 113 | 1.0 | 6.0 | 0.00 | 0.00 | 0.00 | 100 | 1014.4 |
| 20260504221558 | 81 | 142 | 1.0 | 6.0 | 0.00 | 0.00 | 0.00 | 100 | 1014.3 |
| 20260504220118 | 81 | 0 | 2.0 | 7.0 | 0.00 | 0.00 | 0.00 | 100 | 1014.3 |
| 20260504214551 | 81 | 82 | 1.0 | 8.0 | 0.00 | 0.00 | 0.00 | 100 | 1014.2 |
| 20260504213102 | 81 | 84 | 2.0 | 9.0 | 0.00 | 0.00 | 0.00 | 100 | 1014.0 |
| 20260504211554 | 82 | 72 | 2.0 | 7.0 | 0.00 | 0.00 | 0.00 | 100 | 1013.9 |
| 20260504210059 | 82 | 148 | 2.0 | 7.0 | 0.00 | 0.00 | 0.00 | 100 | 1013.9 |
| 20260504204604 | 82 | 153 | 1.0 | 8.0 | 0.00 | 0.00 | 0.00 | 100 | 1014.0 |
| 20260504203050 | 83 | 0 | 3.0 | 8.0 | 0.00 | 0.00 | 0.00 | 100 | 1013.9 |
| 20260504201603 | 83 | 103 | 2.0 | 10.0 | 0.00 | 0.00 | 0.00 | 100 | 1013.9 |
| 20260504194552 | 84 | 221 | 4.0 | 9.0 | 0.00 | 0.00 | 0.00 | 100 | 1014.2 |
| 20260504193049 | 84 | 141 | 3.0 | 8.0 | 0.00 | 0.00 | 0.00 | 100 | 1014.3 |
| 20260504191551 | 84 | 101 | 3.0 | 11.0 | 0.00 | 0.00 | 0.00 | 100 | 1014.4 |
| 20260504190047 | 84 | 109 | 4.0 | 9.0 | 0.00 | 0.00 | 0.00 | 100 | 1014.7 |
| 20260504184556 | 85 | 34 | 3.0 | 9.0 | 0.00 | 0.00 | 0.00 | 100 | 1014.9 |
| 20260504183045 | 85 | 134 | 4.0 | 8.0 | 0.00 | 0.00 | 0.00 | 100 | 1014.9 |
| 20260504181554 | 85 | 134 | 3.0 | 9.0 | 0.00 | 0.00 | 0.00 | 100 | 1014.9 |
| 20260504180052 | 86 | 86 | 2.0 | 10.0 | 0.00 | 0.00 | 0.00 | 100 | 1015.1 |
| 20260504174550 | 85 | 144 | 4.0 | 9.0 | 0.00 | 0.00 | 0.00 | 100 | 1015.2 |
| 20260504173059 | 85 | 141 | 3.0 | 10.0 | 0.00 | 0.00 | 0.00 | 100 | 1015.3 |
| 20260504171548 | 86 | 51 | 3.0 | 8.0 | 0.00 | 0.00 | 0.00 | 100 | 1015.5 |
| 20260504100103 | 79 | 54 | 2.0 | 8.0 | 0.00 | 0.00 | 0.00 | 100 | 1015.4 |
| 20260504081553 | 80 | 126 | 2.0 | 6.0 | 0.00 | 0.00 | 0.00 | 100 | 1014.6 |